Regional Weather Roundup
Issued by NWS Upton, NY

Current Version | Previous Version | Text Only | Print | Product List | Glossary On
Versions: 1 2 3 4 5 6 7 8 9 10 11 12 13 14 15 16 17 18 19 20 21 22 23 24 25 26 27
000
ASUS41 KOKX 241606
RWROKX

Regional Weather Roundup
National Weather Service New York NY
1100 AM EST SAT FEB 24 2018

Note: "FAIR" indicates few or no clouds below 12,000 feet with no
significant weather and/or obstructions to visibility.

NYZ071-072-176-178-NJZ106-104-241700-
New York City Metro Area

CITY           SKY/WX    TMP DP  RH WIND       PRES   REMARKS
Central Park   CLOUDY    53  39  59 NW6       30.18S
Bronx Bot Gard   N/A     54  37  54 N3        30.15S
Bronx Lehman C   N/A     52  39  62 N3          N/A
LaGuardia Arpt PTSUNNY   53  40  61 NW5       30.15S
Queens College   N/A     52  39  62 N5          N/A
Kennedy Intl   PTSUNNY   52  41  66 NW9       30.17R
Breezy Point     N/A     45 N/A N/A W7          N/A
Brooklyn Coll    N/A     50  41  71 W2          N/A
Staten Island    N/A     50  45  81 NW2         N/A
Newark/Liberty PTSUNNY   53  41  63 NW6       30.16S
Teterboro      CLOUDY    54  40  59 N9        30.15S
$$

NYZ177-179-078>081-241700-
Long Island New York

CITY           SKY/WX    TMP DP  RH WIND       PRES   REMARKS
Jones Beach      N/A     45 N/A N/A W6          N/A
Wantagh          N/A     54  41  62 N3          N/A
Hempstead        N/A     52  43  71 N6        30.19R
Matinecock Pt    N/A     50 N/A N/A CALM        N/A
Farmingdale    CLOUDY    53  42  66 N5        30.16R
MacArthur/ISP  PTSUNNY   52  42  69 NW9       30.15R
Stony Brook U    N/A     46  41  81 W2          N/A
Shirley        CLOUDY    53  42  66 N8        30.15S
Mt Sinai Harb    N/A     48 N/A N/A MISG        N/A
Westhampton    FAIR      53  41  63 VRB5      30.17R
East Hampton   FAIR      50  41  72 NW5       30.13F
Southold         N/A     46  41  81 W6          N/A
Montauk          N/A     49  42  77 W8        30.14F
$$

NYZ052-065-067-241700-
Hudson Valley

CITY           SKY/WX    TMP DP  RH WIND       PRES   REMARKS
White Plains   PTSUNNY   52  42  69 NW10      30.14S
Larchmont Harb   N/A     50 N/A N/A W12         N/A
Croton On Huds   N/A     48 N/A N/A W12         N/A
Somers           N/A     50  41  71 NW5         N/A
Brewster         N/A     50  39  66 NW9         N/A
Newburgh       CLOUDY    50  43  76 W9        30.16F
Montgomery     PTSUNNY   50  38  63 NW6       30.14S
Otisville        N/A     46  37  71 NW2         N/A
Warwick          N/A     48  39  71 NW8         N/A
Suffern          N/A     50  39  66 NW8         N/A
Poughkeepsie   PTSUNNY   49  40  71 NE8       30.15F
Albany         CLOUDY    44  31  60 NW21G31   30.20R
$$

NJZ001-105-106-008-010-013-015-019>022-104-241700-
New Jersey

CITY           SKY/WX    TMP DP  RH WIND       PRES   REMARKS
Newark/Liberty PTSUNNY   53  41  63 NW6       30.16S
Teterboro      CLOUDY    54  40  59 N9        30.15S
Caldwell       CLOUDY    53  41  63 VRB5      30.16S
Somerville     CLOUDY    51  43  74 NW9       30.15F
Linden         CLOUDY    52  44  72 N6        30.15F
Perth Amboy      N/A     48 N/A N/A W7          N/A
Sussex         PTSUNNY   50  40  68 NW3       30.17R
Andover          N/A     49  41  74 N5        30.18R
Trenton        CLOUDY    50  44  80 VRB5      30.19R
Millville      CLOUDY    52  48  86 N3        30.19S
Atlantic City  PTSUNNY   53  48  83 CALM      30.18F
Wrightstown    LGT RAIN  48  45  87 SW5       30.15S
Toms River     LGT RAIN  49  47  93 S3        30.19R
Belmar         CLOUDY    52  43  71 W3        30.18S
$$

PAZ047>061-062-071-241700-
Eastern Pennsylvania

CITY           SKY/WX    TMP DP  RH WIND       PRES   REMARKS
Philadelphia   CLOUDY    47  44  90 SW6       30.21R FOG
Allentown      LGT RAIN  49  43  80 S5        30.19R
Scranton       RAIN      43  42  97 CALM      30.20S FOG
$$

CTZ002-004>006-009-010-012-RIZ004-006-007-MAZ004-011-015-241700-
Southern New England

 In CT

CITY           SKY/WX    TMP DP  RH WIND       PRES   REMARKS
Bradley Intl   PTSUNNY   53  36  52 NW15      30.14R
Hartford       FAIR      53  37  54 N12       30.14S
Danbury        FAIR      51  41  68 NW7       30.16S
Wtrbury/Oxford FAIR      51  40  65 NW9       30.14S
Norwalk Harbor   N/A     43 N/A N/A S7          N/A
Bridgeport     FAIR      49  42  77 SW9       30.14F
Meriden        FAIR      54  38  54 NW10      30.14S
New Haven      FAIR      53  43  68 NW12      30.13F
Chester        FAIR      55  39  54 N10       30.13R
Groton         FAIR      49  42  77 SW8       30.11F
Willimantic    FAIR      53  37  54 NW12G22   30.13F

 In RI

CITY           SKY/WX    TMP DP  RH WIND       PRES   REMARKS
Providence     FAIR      57  39  51 NW14      30.11S
Block Island   FAIR      46  41  82 W10       30.13S
Westerly       FAIR      48  44  86 SW7       30.13S

In MA

CITY           SKY/WX    TMP DP  RH WIND       PRES   REMARKS
Boston         FAIR      53  38  56 NW13      30.08F
Worcester      FAIR      48  34  58 W14       30.09R
Westfield      FAIR      50  36  58 NW14      30.13R
Provincetown   FAIR      48  40  73 NW9       30.10F
Nantucket      CLOUDY    43  43 100 W7        30.11S
$$

ANZ330-335-338-340-345-350-353-355-241700-
Coastal Marine Observations


STATION/POSITION TIME  SKY/WX   TEMP    WIND        PRES    VSBY  WAVE
                                AIR SEA DIR/SP/G                  HT/PER
                 (UTC)          (F)     (DEG/KT/KT) (MB)    (MI)  (FT/S)
NY Harb Entrance 1550            42     220/  4/  6 1021.7          2/ 6
20 S Fire Island 1550            44 43  260/  6/  8 1021.5          2/ 9
23 SSW Montauk P 1550            43 43  230/  8/ 10 1021.3          3/ 5
15 E Barnegat Li 1530               42                N/A           3/ 9
Hudson Canyon    1550            45 46  270/ 10/ 10 1021.4          3/ 6
Kings Point      1548            47 39  240/  2/  2 1022.3
Execution Rocks  NOT AVBL
Western LI Sound NOT AVBL
Central LI Sound 1545            40     250/  8/  8   N/A           1
Robbins Reef     1548            49     260/  7/  8 1021.8
$$


>>>>>>>>>>>>>>>>>>>>>>>>>>>> KEY <<<<<<<<<<<<<<<<<<<<<<<<<<<
>                                                          <
>     SKY/WX - Sky Condition/Present Weather               <
>     TMP    - Temperature in Fahrenheit                   <
>     DP     - Dew Point in Fahrenheit                     <
>     RH     - Relative Humidity in Percent                <
>     WIND   - Direction (from) and Speed in MPH           <
>     PRES   - Mean Sea Level Pressure (inches of Hg)      <
>     WCI    - Wind Chill Index                            <
>     VSB    - Visibility in Miles                         <
>     HX     - Heat Index                                  <
>     TC     - Temperature in Celsius                      <
>     VRB    - Varibale Wind Direction                     <
>                                                          <
>>>>>>>>>>>>>>>>>>>>>>>>>>>> KEY <<<<<<<<<<<<<<<<<<<<<<<<<<<




USA.gov is the U.S. government's official web portal to all federal, state and local government web resources and services.